This demonstration page uses our WeatherBlox Daily Observations layout. Learn more.

Left ArrowRight Arrow

40.92945, -100.16068

Hourly Observations for February 1, 2022

Temp ( °F °C ) Dew Point ( °F °C ) Humidity (%) Winds ( mph kmh ) Pressure ( in mb ) Visibility ( mi km ) Precip ( " mm )
12:15 am 00:15 Clear 21 -6 11 -11.6 65 65 NNW 8 13 29.97 1015 10 16 0.00 0.00
12:35 am 00:35 Clear 23 -5 12 -11 63 63 NNW 8 13 29.97 1015 10 16 0.00 0.00
12:55 am 00:55 Clear 23 -5.2 13 -10.4 67 67 N 7 11 29.97 1015 10 16 0.00 0.00
1:15 am 01:15 Clear 27 -3 17 -8.3 67 67 N 10 17 29.96 1014 10 16 0.00 0.00
1:35 am 01:35 Clear 29 -1.5 20 -6.9 67 67 NNW 9 15 29.95 1014 10 16 0.00 0.00
1:55 am 01:55 Clear 33 0.7 22 -5.5 64 64 N 9 15 29.94 1014 10 16 0.00 0.00
2:15 am 02:15 Clear 30 -1 21 -6.3 68 68 NNW 8 13 29.97 1015 10 16 0.00 0.00
2:35 am 02:35 Clear 29 -1.5 20 -6.7 68 68 N 6 9 29.97 1015 10 16 0.00 0.00
2:55 am 02:55 Clear 29 -1.9 20 -6.9 69 69 N 7 11 29.99 1015 10 16 0.00 0.00
3:15 am 03:15 Clear 27 -2.6 19 -7.1 72 72 NNW 6 9 30.00 1016 10 16 0.00 0.00
3:35 am 03:35 Clear 24 -4.4 17 -8.2 75 75 NW 6 9 30.03 1017 10 16 0.00 0.00
3:55 am 03:55 Clear 24 -4.6 17 -8.1 77 77 WNW 8 13 30.03 1017 10 16 0.00 0.00
4:15 am 04:15 Clear 20 -6.5 15 -9.3 81 81 WNW 8 13 30.06 1018 10 16 0.00 0.00
4:35 am 04:35 Clear 20 -6.5 15 -9.2 81 81 WNW 10 17 30.07 1018 10 16 0.00 0.00
4:55 am 04:55 Clear 22 -5.5 17 -8.3 81 81 WNW 10 17 30.06 1018 10 16 0.00 0.00
5:15 am 05:15 Clear 22 -5.6 17 -8.4 81 81 W 8 13 30.07 1018 10 16 0.00 0.00
5:35 am 05:35 Clear 21 -6.2 16 -8.9 81 81 WNW 8 13 30.09 1019 10 16 0.00 0.00
5:55 am 05:55 Clear 22 -5.4 18 -8 82 82 WNW 9 15 30.09 1019 10 16 0.00 0.00
6:15 am 06:15 Clear 23 -5.2 18 -7.9 82 82 WNW 7 11 30.09 1019 10 16 0.00 0.00
6:35 am 06:35 Clear 21 -6 17 -8.3 84 84 W 7 11 30.12 1020 10 16 0.00 0.00
6:55 am 06:55 Clear 22 -5.3 19 -7.5 85 85 WNW 10 17 30.11 1020 10 16 0.00 0.00
7:15 am 07:15 Clear 25 -4.1 19 -7 80 80 NW 9 15 30.11 1020 10 16 0.00 0.00
7:35 am 07:35 Clear 25 -3.8 20 -6.6 81 81 NW 7 11 30.12 1020 10 16 0.00 0.00
7:55 am 07:55 Sunny 26 -3.5 20 -6.7 79 79 WNW 7 11 30.12 1020 10 16 0.00 0.00
8:15 am 08:15 Sunny 26 -3.6 20 -6.7 79 79 W 7 11 30.14 1021 10 16 0.00 0.00
8:35 am 08:35 Sunny 28 -2.3 20 -6.8 72 72 WNW 7 11 30.14 1021 10 16 0.00 0.00
8:55 am 08:55 Sunny 30 -1.1 19 -7.1 64 64 N 9 15 30.14 1021 10 16 0.00 0.00
9:15 am 09:15 Sunny 31 -0.5 18 -7.6 59 59 N 9 15 30.14 1021 10 16 0.00 0.00
9:35 am 09:35 Sunny 31 -0.5 17 -8.1 57 57 N 12 19 30.14 1021 10 16 0.00 0.00
9:55 am 09:55 Sunny 32 -0.1 17 -8.5 54 54 N 17 28 30.15 1021 10 16 0.00 0.00
10:15 am 10:15 Sunny 32 0 16 -8.7 52 52 N 16 26 30.16 1021 10 16 0.00 0.00
10:35 am 10:35 Sunny 32 0 16 -9 51 51 N 20 31 30.16 1021 10 16 0.00 0.00
10:55 am 10:55 Sunny 33 0.5 16 -8.9 50 50 N 18 30 30.16 1021 10 16 0.00 0.00
11:15 am 11:15 Sunny 32 0 15 -9.5 49 49 N 16 26 30.18 1022 10 16 0.00 0.00
11:35 am 11:35 Sunny 33 0.6 13 -10.3 44 44 N 16 26 30.17 1022 10 16 0.00 0.00
11:55 am 11:55 Sunny 33 0.6 13 -10.8 43 43 N 17 28 30.17 1022 10 16 0.00 0.00
12:15 pm 12:15 Sunny 33 0.6 12 -11 42 42 N 20 31 30.17 1022 10 16 0.00 0.00
12:35 pm 12:35 Sunny 34 0.9 12 -11.1 41 41 N 22 35 30.16 1021 10 16 0.00 0.00
12:55 pm 12:55 Sunny 33 0.4 11 -11.4 41 41 N 17 28 30.16 1021 10 16 0.00 0.00
1:15 pm 13:15 Sunny 33 0.5 11 -11.6 40 40 N 18 30 30.15 1021 10 16 0.00 0.00
1:35 pm 13:35 Sunny 33 0.7 11 -11.4 40 40 N 18 30 30.15 1021 10 16 0.00 0.00
1:55 pm 13:55 Sunny 33 0.6 10 -12 39 39 N 17 28 30.14 1021 10 16 0.00 0.00
2:15 pm 14:15 Sunny 32 0.2 10 -12 40 40 N 18 30 30.15 1021 10 16 0.00 0.00
2:35 pm 14:35 Sunny 32 0.1 9 -12.6 38 38 N 20 31 30.16 1021 10 16 0.00 0.00
2:55 pm 14:55 Sunny 32 0 8 -13.3 36 36 N 17 28 30.16 1021 10 16 0.00 0.00
3:15 pm 15:15 Sunny 32 0 8 -13.3 36 36 N 15 24 30.16 1021 10 16 0.00 0.00
3:35 pm 15:35 Sunny 32 -0.2 7 -13.7 36 36 NNE 18 30 30.16 1021 10 16 0.00 0.00
3:55 pm 15:55 Sunny 31 -0.5 7 -14.1 35 35 NNE 18 30 30.16 1021 10 16 0.00 0.00
4:15 pm 16:15 Sunny 30 -1 6 -14.5 35 35 NNE 16 26 30.18 1022 10 16 0.00 0.00
4:35 pm 16:35 Sunny 30 -1.3 6 -14.6 36 36 NNE 16 26 30.19 1022 10 16 0.00 0.00
4:55 pm 16:55 Sunny 29 -1.6 5 -15.1 35 35 NNE 16 26 30.20 1023 10 16 0.00 0.00
5:15 pm 17:15 Sunny 29 -1.9 5 -15.2 36 36 NNE 14 22 30.21 1023 10 16 0.00 0.00
5:35 pm 17:35 Sunny 28 -2 4 -15.5 35 35 NNE 15 24 30.22 1023 10 16 0.00 0.00
5:55 pm 17:55 Sunny 28 -2.2 3 -16.1 34 34 N 13 20 30.23 1024 10 16 0.00 0.00
6:15 pm 18:15 Partly Cloudy 27 -2.7 2 -16.5 34 34 NNE 10 17 30.24 1024 10 16 0.00 0.00
6:35 pm 18:35 Partly Cloudy 27 -3 2 -16.5 35 35 NNE 10 17 30.26 1025 10 16 0.00 0.00
6:55 pm 18:55 Partly Cloudy 26 -3.3 1 -17.3 33 33 N 15 24 30.26 1025 10 16 0.00 0.00
7:15 pm 19:15 Clear 26 -3.5 1 -17.1 34 34 NNE 16 26 30.27 1025 10 16 0.00 0.00
7:35 pm 19:35 Mostly Cloudy 26 -3.6 2 -16.8 36 36 NNE 13 20 30.28 1026 10 16 0.00 0.00
7:55 pm 19:55 Cloudy 25 -3.8 2 -16.8 36 36 NNE 14 22 30.29 1026 10 16 0.00 0.00
8:15 pm 20:15 Cloudy 24 -4.3 -2 -19.1 31 31 N 15 24 30.31 1026 10 16 0.00 0.00
8:35 pm 20:35 Cloudy 24 -4.6 -3 -19.2 31 31 NNE 20 31 30.32 1027 10 16 0.00 0.00
8:55 pm 20:55 Cloudy 23 -5 -3 -19.5 31 31 NNE 18 30 30.33 1027 10 16 0.00 0.00
9:15 pm 21:15 Cloudy 23 -5.1 -3 -19.5 32 32 NNE 18 30 30.33 1027 10 16 0.00 0.00
9:35 pm 21:35 Cloudy 22 -5.5 -3 -19.5 33 33 NNE 20 31 30.33 1027 10 16 0.00 0.00
9:55 pm 21:55 Cloudy 22 -5.7 -3 -19.5 33 33 NNE 21 33 30.34 1027 10 16 0.00 0.00
10:15 pm 22:15 Cloudy 20 -6.4 -4 -19.9 34 34 NNE 22 35 30.35 1028 10 16 0.00 0.00
10:35 pm 22:35 Cloudy 19 -7 -4 -20 35 35 NNE 21 33 30.37 1028 10 16 0.00 0.00
10:55 pm 22:55 Cloudy 19 -7.1 -4 -20 35 35 NNE 17 28 30.38 1029 10 16 0.00 0.00
11:15 pm 23:15 Cloudy 19 -7.5 -5 -20.3 35 35 NNE 17 28 30.38 1029 10 16 0.00 0.00
11:35 pm 23:35 Cloudy 18 -7.7 -5 -20.3 36 36 NNE 14 22 30.40 1029 10 16 0.00 0.00
11:55 pm 23:55 Cloudy 18 -8 -4 -20 38 38 NE 16 26 30.41 1030 10 16 0.00 0.00

Powered by AerisWeather